www.pogodaiklimat.ru

Погода и климат >> Архив погоды >> Боливия >> Виру-Виру


ПОГОДА в Виру-Виру

  • Прогноз погоды в Виру-Виру
  • Монитор погоды в Виру-Виру

АРХИВ ПОГОДЫ в Виру-Виру

Время (UTC), дата Ветер
(напр.,м/с)
 
Видим.   Явления Облачность Т
(С)
Тd
(С)
f
(%)
Тe
(С)
Тes
(С)
Комфортность P
(гПа)
Po
(гПа)
Тmin
(С)
Tmax
(С)
R
(мм)
R24
(мм)
S
(см)
00 15.08 Ю 3 9000 м дым ясно +17.6 +3.4 39 +18 +18 1021.1 976.8 +24.6
03 15.08 Ю 3 13 км ясно +15.8 +3.6 44 +15 +15 1021.9 977.3
06 15.08 Ю 3 13 км ясно +14.5 +2.8 45 +14 +14 1021.0 976.3
09 15.08 Ю 3 15 км ясно +12.0 +0.6 46 +11 +11 1020.4 975.3
12 15.08 Ю 3 20 км 8/0
[Cs]
+15.0 +0.7 38 +14 +16 1021.4 976.7 +11.5
15 15.08 ЮВ 3 9000 м дым 8/0
[Cs]
+21.5 +0.7 25 +21 +31 комфорт 1020.5 976.8
18 15.08 С 2 9000 м дым 4/0
[Ci fib]
+28.3 +9.7 31 +28 +40 жарко 1015.6 973.1
21 15.08 С 4 8000 м дым 4/0
[Ci fib]
+28.0 +8.8 30 +28 +29 жарко 1013.7 971.2 +30.0
00 16.08 СЗ 3 6000 м дым 6/0
[Ci fib]
+20.8 +10.8 53 +23 +23 комфорт 1014.8 971.3 +30.0
06 16.08 СЗ 3 9000 м дым 5/0
[Ci fib]
+16.0 +11.3 74 +16 +16 1015.6 971.3
09 16.08 СЗ 4 9000 м дым 5/0
[Ci fib]
+17.7 +14.1 79 +17 +17 1014.3 970.3
12 16.08 С 2 9000 м дым 4/0
[Ci fib]
+18.5 +14.6 78 +20 +22 1015.7 971.8 +15.4
15 16.08 С 5 9000 м дым ясно +28.4 +15.6 46 +31 +39 душно 1014.4 972.0
18 16.08 СЗ 12 9000 м дым ясно +32.8 +12.2 29 +33 +33 жарко 1010.5 968.8
21 16.08 С 9 8000 м дым ясно +30.6 +12.0 32 +31 +31 жарко 1009.2 967.3 +33.2
00 17.08 С 6 9000 м дым ясно +25.4 +12.3 44 +27 +27 жарко 1010.5 967.8 +33.2
03 17.08 С 8 8000 м дым ясно +24.3 +11.3 44 +26 +26 жарко 1010.1 967.3
06 17.08 С 5 20 км ясно +19.2 +14.2 73 +20 +20 1009.9 966.3
09 17.08 С 5 15 км ясно +19.4 +15.2 77 +21 +21 комфорт 1008.8 965.3
12 17.08 С 8 15 км 3/0
[Ci fib]
+23.0 +15.3 62 +27 +27 душно 1010.3 967.3 +19.2
15 17.08 С 13 9000 м дым ясно +30.6 +13.3 35 +32 +32 жарко 1009.2 967.3
18 17.08 СЗ 14 7000 м дым ясно +32.9 +12.2 28 +33 +33 жарко 1006.8 965.3
21 17.08 С 10 5000 м дым ясно +30.6 +13.7 36 +32 +32 жарко 1005.0 963.3 +33.4
00 18.08 С 9 8000 м дым ясно +26.3 +15.7 52 +29 +29 жарко 1007.2 964.8 +33.4
03 18.08 СЗ 6 8000 м дым ясно +24.8 +16.6 60 +28 +28 жарко 1009.1 966.4
06 18.08 СЗ 3 8000 м дым ясно +21.4 +16.7 75 +25 +25 комфорт 1010.6 967.3
09 18.08 ЮЗ 2 7000 м дым 1/0 2000 м
[Ac trans]
+20.0 +16.7 81 +23 +23 комфорт 1012.7 969.1
12 18.08 Ю 5 7000 м дым 4/1 750 м
[Sc Ac trans]
+23.8 +13.0 51 +26 +27 жарко 1014.4 971.3 +19.3
15 18.08 ЮВ 3 6000 м дым ясно +29.5 +13.6 38 +31 +45 жарко 1014.6 972.3
18 18.08 СЗ 7 7000 м дым 6/6 600 м
[Cu med, cong]
+32.4 +16.3 38 +35 +37 душно 1012.1 970.3
21 18.08 СЗ 6 7000 м дым 1/1 500 м
[Sc diur, vesp]
+31.5 +17.2 42 +35 +36 очень
душно
1010.1 968.3 +33.3
00 19.08 ЮЗ 2 7000 м дым 4/0
[Ci fib]
+25.0 +18.3 66 +29 +29 душно 1012.7 969.9 +33.3
03 19.08 Ю 6 13 км 6/6 450 м
[Sc Ac trans Ci fib]
+24.8 +12.9 48 +27 +27 жарко 1015.8 972.8
06 19.08 Ю 7 12 км дым 5/3 700 м
[Sc Ac trans]
+22.6 +11.1 48 +25 +25 комфорт 1016.7 973.3
09 19.08 Ю 6 9000 м дым 9/4 700 м
[Sc Ac As]
+21.5 +8.6 44 +23 +23 комфорт 1017.9 974.3
12 19.08 Ю 8 9000 м дым 8/5 700 м
[Sc Ac trans Ci fib]
+21.1 +4.2 33 +21 +22 комфорт 1019.0 975.3 +20.6
15 19.08 Ю 9 9000 м дым 9/6 700 м
[Sc Ac trans]
+22.5 +4.8 32 +23 +23 комфорт 1020.8 977.3
18 19.08 Ю 7 9000 м дым 8/5 750 м
[Sc Ac trans]
+22.3 +4.3 31 +22 +24 комфорт 1017.4 974.0
21 19.08 Ю 6 9000 м дым 8/5 700 м
[Sc Ac trans]
+21.3 +4.0 32 +22 +22 комфорт 1016.5 973.0 +25.0
00 20.08 Ю 7 13 км дым 9/5 700 м
[Sc Ac trans]
+20.5 +3.3 32 +21 +21 комфорт 1017.7 974.0 +25.0
03 20.08 Ю 7 20 км 10/0 2000 м
[Ac As]
+19.8 +4.1 35 +20 +20 1020.2 976.3
06 20.08 Ю 5 20 км 9/0 2000 м
[Ac trans]
+19.8 +3.5 34 +20 +20 1019.2 975.3
09 20.08 Ю 5 13 км 8/3 700 м
[Sc Ac trans]
+19.2 +4.4 38 +19 +19 1017.9 974.0
12 20.08 Ю 6 15 км дым 6/3 750 м
[Sc Ac trans]
+19.5 +4.4 37 +20 +20 1020.8 976.8 +18.9
15 20.08 Ю 6 15 км дым 6/3 750 м
[Sc Ac trans]
+24.5 +5.6 30 +24 +27 комфорт 1021.6 978.3
18 20.08 Ю 5 15 км 8/3 600 м
[Cu hum Ac trans Cs]
+25.4 +6.6 30 +25 +28 комфорт 1019.4 976.3
21 20.08 Ю 5 12 км 4/1 700 м
[Sc Ci fib]
+24.2 +5.2 29 +24 +24 комфорт 1018.5 975.3 +25.4
00 21.08 Ю 7 20 км дым 4/0
[Ci fib]
+21.0 +4.8 35 +22 +22 комфорт 1019.2 975.5 +25.4
03 21.08 Ю 5 12 км 1/0 2000 м
[Ac trans]
+20.3 +6.3 40 +21 +21 комфорт 1021.2 977.3
06 21.08 Ю 5 12 км 8/1 750 м
[Sc Ac trans]
+20.7 +6.9 41 +22 +22 комфорт 1020.5 976.7
09 21.08 Ю 7 15 км 1/0 2000 м
[Ac trans]
+19.4 +4.8 38 +19 +19 1020.3 976.3
12 21.08 Ю 6 15 км 5/1 700 м
[Sc Ac trans]
+20.3 +6.1 40 +21 +22 комфорт 1022.2 978.3 +19.2
15 21.08 Ю 6 15 км 6/6 750 м
[Sc]
+25.5 +4.6 26 +25 +27 комфорт 1021.4 978.3
18 21.08 нст 1 7000 м дым 4/0
[Ci fib]
+28.7 +7.8 27 +28 +43 жарко 1016.8 974.3
21 21.08 СЗ 2 6000 м дым ясно +29.6 +10.0 30 +30 +31 жарко 1014.6 972.3 +30.2

 

Местоположение метеостанции Виру-Виру (Боливия): широта -17.63 долгота -63.13 высота над уровнем моря 373 м.

В архиве по умолчанию представлена погода в Виру-Виру за последнюю неделю. Архивные данные за месяц целиком и за предыдущие месяцы, начиная с января 2011 года, Вы можете получить, выбрав интересующий диапазон дат из раскрывающегося списка и нажав кнопку "Ввод!".


*Определитесь, кто Вы:
робот инопланетянин человек

Внимание! Время в таблицах - всемирное. Для получения местного времени необходимо прибавить поправку, которая равна -4 ч.

Смотрите также архив погоды в соседних городах и на ближайших метеорологических станциях:

Погода в Санта-Крусе (Боливия) (20 км)
Погода в Валье Гранде (Боливия) (137 км)
Погода в Сан-Хавьере (Боливия) (168 км)
Погода в Консепсьоне (Боливия) (204 км)
Погода в Ассенсьон де Гуарае (Боливия) (214 км)
Погода в Монтеагудо (Боливия) (253 км)
Погода в Сан Хосе де Чикитосе (Боливия) (255 км)
Погода в Камири (Боливия) (267 км)
Погода в Сан-Игнасио (Боливия) (269 км)
Погода в Сукре (Боливия) (276 км)

Пояснения к столбцам:

Ветер - указаны скорость ветра в м/с - средняя за 10 мин, порывы в срок и между сроками (в фигурных скобках) и направление, откуда дует ветер: С - северный, СВ - северо-восточный, В - восточный, ЮВ - юго-восточный, Ю - южный, ЮЗ - юго-западный, З - западный, СЗ - северо-западный.
Видимость - горизонтальная дальность видимости в метрах или километрах. При видимости от 1 до 10 км при отсутствии осадков обычно наблюдается дымка, при ухудшении видимости до 1 км и менее - туман. В сухую погоду видимость может ухудшаться дымом, пылью или мглою.
Явления - указаны атмосферные явления, наблюдавшиеся в срок или в последний час перед сроком; фигурными скобками обозначены явления, наблюдавшиеся между сроками (за 1-3 часа до срока); квадратными скобками обозначены град или гололедные отложения с указанием их диаметра в мм.
Облачность - указаны через наклонную черту общая и нижняя облачность в баллах и высота нижней границы облаков в метрах; квадратными скобками обозначены формы облаков: Ci - перистые, Cs - перисто-слоистые, Cc - перисто-кучевые, Ac - высококучевые, As - высокослоистые, Sc - слоисто-кучевые, Ns - слоисто-дождевые, Cu - кучевые, Cb - кучево-дождевые. Подробнее классификацию облаков см. в Атласе облаков (PDF).
T - Температура воздуха - температура, измеренная на высоте 2 м над землей.
Td - Температура точки росы - температура, при понижении до которой содержащийся в воздухе водяной пар достигнет насыщения.
f - Относительная влажность воздуха - влажноcть воздуха, измеренная на высоте 2 м над землей.
Te - Эффективная температура - температура, которую ощущает одетый по сезону человек в тени. Характеристика душности погоды. При расчете учитывается влияние влажности воздуха и скорости ветра на теплоощущения человека.
Tes - Эффективная температура на солнце - температура, которую ощущает человек, с поправкой на солнечный нагрев. Характеристика знойности погоды. Зависит от высоты солнца над горизонтом, облачности и скорости ветра. Ночью, в пасмурную погоду, а также при ветре 12 м/с и более поправка равна нулю.
P - Атмосферное давление - приведенное к уровню моря атмосферное давление.
Po - Атмосферное давление - измеренное на уровне метеостанции атмосферное давление.
Tmin - Минимальная температура - минимум температуры воздуха на высоте 2 м над землей.
Tmax - Максимальная температура - максимум температуры воздуха на высоте 2 м над землей.
R - Количество осадков - Количество выпавших осадков за период времени, мм. При наведении курсора мыши на число - период времени, за который выпало указанное количество осадков.
R24 - Количество осадков - Количество выпавших осадков за 24 часа, мм.
S - Снежный покров - Высота снежного покрова, см. При наведении курсора мыши на число - состояние снежного покрова и степень покрытия местности в баллах.